User: anonymous   Login
Location: Melbourne
(37.8170°S, 144.9670°E)
Time: 20:23:06
(UTC+10:00)
Language:

Explorer 11/Cluster Stage 4 - Orbit

View from above orbital plane
View from above orbital plane
View from above satellite
View from above satellite

Ground track
Ground track

The orbit data is extracted from the following two-line orbital elements,

1   107U 61013A   15245.54000369 +.00001055 +00000-0 +12312-3 0  9996
2   107 028.7921 335.4183 0553937 306.5749 129.3911 14.07182772719329
Epoch (UTC): 02 September 2015 12:57:36
Eccentricity: 0.0553937
inclination: 28.7921°
perigee height: 467 km
apogee height: 1270 km
right ascension of ascending node: 335.4183°
argument of perigee: 306.5749°
revolutions per day: 14.07182772
mean anomaly at epoch: 129.3911°
orbit number at epoch: 71932

The dashed part of the orbit path shows where the satellite is in the earth's shadow,  

DLR